Minot, ND

8:37 AM CDT on May 23, 2017 (GMT -0500)
Minot International

Weather History for KMOT - July, 2013

Change the Weather History Date:

Sunday, July 21, 2013

  Actual Average Record
Temperature  
Mean Temperature 69 °F 70 °F  
Max Temperature 83 °F 82 °F 99 °F (1917)
Min Temperature 55 °F 58 °F 39 °F (1915)
Cooling Degree Days 4 6  
Month to date cooling degree days 119 108  
Year to date cooling degree days 193 197  
Since 1 June cooling degree days 183 181  
Growing Degree Days 18 (Base 50)    
Moisture  
Dew Point 58 °F    
Average Humidity 74    
Maximum Humidity 93    
Minimum Humidity 55    
Precipitation  
Precipitation 0.00 in 0.08 in 3.15 in (1935)
Month to date precipitation 4.14 1.80  
Year to date precipitation 17.11 10.77  
Sea Level Pressure  
Sea Level Pressure 29.77 in    
Wind  
Wind Speed 13 mph (SE)    
Max Wind Speed 24 mph    
Max Gust Speed 33 mph    
Visibility 10 miles    
Events Thunderstorm    
T = Trace of Precipitation, MM = Missing Value Source: NWS Daily Summary

Daily Weather History Graph

Daily Weather History Graph

Search for Another Location

Airport or City:

Trip Planner

Search our weather history database for the weather conditions in past years. The results will help you decide how hot, cold, wet, or windy it might be!

Date:

Astronomy

Jul. 21, 2013 Rise Set
Actual Time 6:07 AM CDT 9:35 PM CDT
Civil Twilight 5:28 AM CDT 10:13 PM CDT
Nautical Twilight 4:37 AM CDT 11:04 PM CDT
Astronomical Twilight 3:28 AM CDT 12:12 AM CDT
Moon 8:30 PM CDT (7/21) 4:57 AM CDT (7/21)
Length of Visible Light 16h 45m
Length of Day
15h 28m
Waxing Gibbous, 98% of the Moon is Illuminated
Jul 21
Waxing Gibbous
Jul 22
Full
Jul 29
Last Quarter
Aug 6
New
Aug 14
First Quarter

Hourly Weather History & Observations

Time (CDT) Temp. Heat Index Dew Point Humidity Pressure Visibility Wind Dir Wind Speed Gust Speed Precip Events Conditions
12:54 AM 59.0 °F - 53.1 °F 81% 29.95 in 10.0 mi ESE 6.9 mph - N/A   Partly Cloudy
1:54 AM 57.9 °F - 52.0 °F 81% 29.94 in 10.0 mi ESE 8.1 mph - N/A   Partly Cloudy
2:54 AM 57.9 °F - 52.0 °F 81% 29.93 in 10.0 mi SE 9.2 mph - N/A   Mostly Cloudy
3:54 AM 55.9 °F - 52.0 °F 87% 29.92 in 10.0 mi ESE 8.1 mph - N/A   Clear
4:54 AM 55.9 °F - 53.1 °F 90% 29.90 in 10.0 mi ESE 6.9 mph - N/A   Clear
5:54 AM 55.0 °F - 53.1 °F 93% 29.89 in 10.0 mi East 5.8 mph - N/A   Scattered Clouds
6:54 AM 55.0 °F - 53.1 °F 93% 29.88 in 10.0 mi ESE 8.1 mph - N/A   Clear
7:54 AM 57.0 °F - 53.1 °F 87% 29.88 in 10.0 mi ESE 11.5 mph - N/A   Scattered Clouds
8:54 AM 60.1 °F - 54.0 °F 80% 29.86 in 10.0 mi ESE 11.5 mph - N/A   Clear
9:54 AM 64.0 °F - 55.0 °F 73% 29.83 in 10.0 mi ESE 13.8 mph - N/A   Scattered Clouds
10:02 AM 64.4 °F - 55.4 °F 73% 29.83 in 10.0 mi ESE 12.7 mph - N/A   Mostly Cloudy
10:54 AM 66.0 °F - 55.9 °F 70% 29.81 in 10.0 mi SE 12.7 mph - N/A   Overcast
11:41 AM 69.8 °F - 59.0 °F 68% 29.78 in 10.0 mi SE 12.7 mph 20.7 mph N/A   Scattered Clouds
11:54 AM 70.0 °F - 60.1 °F 71% 29.77 in 10.0 mi SE 21.9 mph 25.3 mph N/A   Partly Cloudy
12:54 PM 73.9 °F - 62.1 °F 66% 29.73 in 10.0 mi SSE 16.1 mph 25.3 mph N/A   Clear
1:54 PM 77.0 °F - 63.0 °F 62% 29.68 in 10.0 mi SSE 23.0 mph 28.8 mph N/A   Clear
2:54 PM 80.1 °F 81.7 °F 64.0 °F 58% 29.65 in 10.0 mi South 19.6 mph 28.8 mph N/A   Clear
3:54 PM 82.9 °F 84.4 °F 64.0 °F 53% 29.61 in 10.0 mi South 15.0 mph 25.3 mph N/A   Clear
4:54 PM 79.0 °F - 64.0 °F 60% 29.59 in 10.0 mi SSE 8.1 mph - N/A Thunderstorm Scattered Clouds
5:32 PM 78.8 °F - 64.4 °F 61% 29.62 in 10.0 mi WSW 13.8 mph 18.4 mph N/A   Mostly Cloudy
5:54 PM 80.1 °F 82.3 °F 66.9 °F 64% 29.62 in 10.0 mi NNW 8.1 mph - N/A   Scattered Clouds
6:54 PM 79.0 °F - 64.9 °F 62% 29.62 in 10.0 mi NW 5.8 mph - N/A   Mostly Cloudy
7:54 PM 75.0 °F - 61.0 °F 62% 29.65 in 10.0 mi WNW 20.7 mph 28.8 mph N/A   Partly Cloudy
8:54 PM 72.0 °F - 59.0 °F 64% 29.68 in 10.0 mi WNW 16.1 mph 23.0 mph N/A   Clear
9:54 PM 68.0 °F - 60.1 °F 76% 29.72 in 10.0 mi WNW 9.2 mph - N/A   Clear
10:54 PM 68.0 °F - 57.9 °F 70% 29.73 in 10.0 mi West 11.5 mph - N/A   Clear
11:54 PM 68.0 °F - 57.9 °F 70% 29.74 in 10.0 mi West 17.3 mph 23.0 mph N/A   Clear